Colby, KS

7:54 PM CST on December 04, 2016 (GMT -0600)
Shaltz

Weather History for KCBK - September, 2013

Change the Weather History Date:

Tuesday, September 3, 2013

  Actual Average (KGLD) Record (KGLD)
Temperature  
Mean Temperature 80 °F 70 °F  
Max Temperature 95 °F 84 °F 102 °F (1947)
Min Temperature 64 °F 56 °F 34 °F (1974)
Degree Days  
Heating Degree Days 0 1  
Month to date heating degree days 3  
Since 1 July heating degree days 15  
Cooling Degree Days 14 6  
Month to date cooling degree days 18  
Year to date cooling degree days 851  
Growing Degree Days 30 (Base 50)    
Moisture  
Dew Point 57 °F    
Average Humidity 51    
Maximum Humidity 73    
Minimum Humidity 30    
Precipitation  
Precipitation 0.00 in 0.05 in 2.61 in (1940)
Month to date precipitation 0.15  
Year to date precipitation 16.05  
Snow  
Snow 0.00 in 0.00 in - ()
Month to date snowfall 0.0  
Since 1 July snowfall 0.0  
Since 1 September snowfall 0.0  
Snow Depth -    
Sea Level Pressure  
Sea Level Pressure 30.08 in    
Wind  
Wind Speed 14 mph (SSE)    
Max Wind Speed 24 mph    
Max Gust Speed 31 mph    
Visibility 10 miles    
Events      
T = Trace of Precipitation, MM = Missing Value Source: NWS Daily Summary

Daily Weather History Graph

Daily Weather History Graph

Search for Another Location

Airport or City:

Trip Planner

Search our weather history database for the weather conditions in past years. The results will help you decide how hot, cold, wet, or windy it might be!

Date:

Astronomy

Sep. 03, 2013 Rise Set
Actual Time 7:14 AM CDT 8:11 PM CDT
Civil Twilight 6:47 AM CDT 8:38 PM CDT
Nautical Twilight 6:14 AM CDT 9:11 PM CDT
Astronomical Twilight 5:40 AM CDT 9:45 PM CDT
Moon 5:30 AM CDT (9/3) 6:59 PM CDT (9/3)
Length of Visible Light 13h 51m
Length of Day
12h 56m
Waning Crescent, 3% of the Moon is Illuminated
Sep 3
Waning Crescent
Sep 5
New
Sep 12
First Quarter
Sep 19
Full
Sep 26
Last Quarter

Hourly Weather History & Observations

Time (CDT) Temp. Heat Index Dew Point Humidity Pressure Visibility Wind Dir Wind Speed Gust Speed Precip Events Conditions
12:15 AM 69.8 °F - 55.4 °F 60% 30.10 in 10.0 mi SE 11.5 mph - N/A   Clear
12:35 AM 69.8 °F - 55.4 °F 60% 30.11 in 10.0 mi SSE 10.4 mph - N/A   Clear
12:55 AM 68.0 °F - 55.4 °F 64% 30.10 in 10.0 mi SSE 9.2 mph - N/A   Clear
1:15 AM 68.0 °F - 55.4 °F 64% 30.11 in 10.0 mi SSE 10.4 mph - N/A   Clear
1:35 AM 68.0 °F - 55.4 °F 64% 30.11 in 10.0 mi SSE 10.4 mph - N/A   Clear
1:55 AM 68.0 °F - 55.4 °F 64% 30.11 in 10.0 mi SSE 10.4 mph - N/A   Clear
2:15 AM 68.0 °F - 55.4 °F 64% 30.11 in 10.0 mi SSE 10.4 mph - N/A   Clear
2:35 AM 66.2 °F - 55.4 °F 68% 30.11 in 10.0 mi South 9.2 mph - N/A   Clear
2:55 AM 68.0 °F - 55.4 °F 64% 30.11 in 10.0 mi South 9.2 mph - N/A   Clear
3:15 AM 68.0 °F - 55.4 °F 64% 30.11 in 10.0 mi South 9.2 mph - N/A   Scattered Clouds
3:35 AM 68.0 °F - 55.4 °F 64% 30.11 in 10.0 mi South 12.7 mph 19.6 mph N/A   Scattered Clouds
3:55 AM 66.2 °F - 55.4 °F 68% 30.10 in 10.0 mi South 10.4 mph - N/A   Scattered Clouds
4:15 AM 66.2 °F - 55.4 °F 68% 30.10 in 10.0 mi South 11.5 mph - N/A   Clear
4:35 AM 66.2 °F - 55.4 °F 68% 30.10 in 10.0 mi South 9.2 mph - N/A   Clear
4:55 AM 66.2 °F - 55.4 °F 68% 30.10 in 10.0 mi South 12.7 mph - N/A   Scattered Clouds
5:15 AM 66.2 °F - 55.4 °F 68% 30.10 in 10.0 mi South 13.8 mph - N/A   Scattered Clouds
5:35 AM 64.4 °F - 55.4 °F 73% 30.10 in 10.0 mi South 12.7 mph - N/A   Clear
5:55 AM 64.4 °F - 55.4 °F 73% 30.09 in 10.0 mi South 12.7 mph - N/A   Clear
6:15 AM 66.2 °F - 55.4 °F 68% 30.10 in 10.0 mi South 12.7 mph - N/A   Clear
6:35 AM 64.4 °F - 55.4 °F 73% 30.10 in 10.0 mi South 13.8 mph - N/A   Clear
6:55 AM 64.4 °F - 55.4 °F 73% 30.10 in 10.0 mi South 11.5 mph - N/A   Clear
7:15 AM 64.4 °F - 55.4 °F 73% 30.11 in 10.0 mi South 11.5 mph - N/A   Clear
7:35 AM 64.4 °F - 55.4 °F 73% 30.11 in 10.0 mi South 12.7 mph 20.7 mph N/A   Clear
7:55 AM 64.4 °F - 55.4 °F 73% 30.12 in 10.0 mi South 9.2 mph 16.1 mph N/A   Clear
8:15 AM 66.2 °F - 55.4 °F 68% 30.12 in 10.0 mi South 12.7 mph 16.1 mph N/A   Clear
8:35 AM 68.0 °F - 55.4 °F 64% 30.12 in 10.0 mi South 11.5 mph 19.6 mph N/A   Clear
8:55 AM 69.8 °F - 55.4 °F 60% 30.11 in 10.0 mi South 15.0 mph 23.0 mph N/A   Clear
9:15 AM 71.6 °F - 55.4 °F 57% 30.11 in 10.0 mi South 17.3 mph 23.0 mph N/A   Clear
9:35 AM 73.4 °F - 55.4 °F 53% 30.12 in 10.0 mi South 20.7 mph 26.5 mph N/A   Clear
9:55 AM 77.0 °F - 55.4 °F 47% 30.12 in 10.0 mi South 19.6 mph 26.5 mph N/A   Clear
10:15 AM 78.8 °F - 53.6 °F 42% 30.13 in 10.0 mi South 23.0 mph 27.6 mph N/A   Clear
10:35 AM 78.8 °F - 53.6 °F 42% 30.12 in 10.0 mi South 20.7 mph 27.6 mph N/A   Clear
10:55 AM 80.6 °F 80.3 °F 53.6 °F 39% 30.12 in 10.0 mi South 17.3 mph 29.9 mph N/A   Clear
11:15 AM 82.4 °F 81.4 °F 53.6 °F 37% 30.12 in 10.0 mi South 23.0 mph 28.8 mph N/A   Clear
11:35 AM 82.4 °F 81.7 °F 55.4 °F 39% 30.11 in 10.0 mi South 20.7 mph 28.8 mph N/A   Clear
11:55 AM 84.2 °F 83.0 °F 55.4 °F 37% 30.12 in 10.0 mi SSE 24.2 mph 31.1 mph N/A   Clear
12:15 PM 86.0 °F 84.5 °F 55.4 °F 35% 30.11 in 10.0 mi South 20.7 mph 29.9 mph N/A   Clear
12:35 PM 86.0 °F 84.9 °F 57.2 °F 37% 30.11 in 10.0 mi SSE 23.0 mph 28.8 mph N/A   Clear
12:55 PM 86.0 °F 84.9 °F 57.2 °F 37% 30.10 in 10.0 mi South 19.6 mph 27.6 mph N/A   Clear
1:15 PM 87.8 °F 87.1 °F 59.0 °F 38% 30.09 in 10.0 mi SSE 21.9 mph 28.8 mph N/A   Clear
1:35 PM 89.6 °F 88.9 °F 59.0 °F 36% 30.09 in 10.0 mi South 17.3 mph 26.5 mph N/A   Clear
1:55 PM 89.6 °F 88.9 °F 59.0 °F 36% 30.08 in 10.0 mi South 20.7 mph 26.5 mph N/A   Clear
2:15 PM 89.6 °F 88.9 °F 59.0 °F 36% 30.07 in 10.0 mi South 18.4 mph 25.3 mph N/A   Clear
2:35 PM 91.4 °F 90.7 °F 59.0 °F 34% 30.07 in 10.0 mi South 16.1 mph 21.9 mph N/A   Clear
2:55 PM 91.4 °F 90.7 °F 59.0 °F 34% 30.07 in 10.0 mi South 17.3 mph 27.6 mph N/A   Clear
3:15 PM 93.2 °F 92.6 °F 59.0 °F 32% 30.06 in 10.0 mi South 15.0 mph 24.2 mph N/A   Clear
3:35 PM 93.2 °F 92.6 °F 59.0 °F 32% 30.05 in 10.0 mi SSE 20.7 mph 25.3 mph N/A   Clear
3:55 PM 95.0 °F 94.4 °F 59.0 °F 30% 30.05 in 10.0 mi SSE 21.9 mph 25.3 mph N/A   Clear
4:15 PM 95.0 °F 95.2 °F 60.8 °F 32% 30.03 in 10.0 mi South 18.4 mph 25.3 mph N/A   Clear
4:35 PM 95.0 °F 95.2 °F 60.8 °F 32% 30.03 in 10.0 mi South 13.8 mph 25.3 mph N/A   Clear
4:55 PM 95.0 °F 95.2 °F 60.8 °F 32% 30.03 in 10.0 mi SSE 15.0 mph 20.7 mph N/A   Clear
5:15 PM 95.0 °F 95.2 °F 60.8 °F 32% 30.03 in 10.0 mi SSE 19.6 mph 27.6 mph N/A   Clear
5:35 PM 95.0 °F 95.2 °F 60.8 °F 32% 30.03 in 10.0 mi SSE 18.4 mph 21.9 mph N/A   Clear
5:55 PM 93.2 °F 93.3 °F 60.8 °F 34% 30.02 in 10.0 mi SSE 19.6 mph - N/A   Clear
6:15 PM 93.2 °F 93.3 °F 60.8 °F 34% 30.03 in 10.0 mi SSE 16.1 mph 25.3 mph N/A   Clear
6:35 PM 91.4 °F 91.4 °F 60.8 °F 36% 30.03 in 10.0 mi SSE 18.4 mph 24.2 mph N/A   Clear
6:55 PM 91.4 °F 91.4 °F 60.8 °F 36% 30.03 in 10.0 mi SSE 16.1 mph 23.0 mph N/A   Clear
7:15 PM 89.6 °F 89.5 °F 60.8 °F 38% 30.03 in 10.0 mi SSE 16.1 mph - N/A   Clear
7:35 PM 89.6 °F 89.5 °F 60.8 °F 38% 30.03 in 10.0 mi SSE 13.8 mph - N/A   Clear
7:55 PM 87.8 °F 87.1 °F 59.0 °F 38% 30.03 in 10.0 mi SSE 13.8 mph - N/A   Clear
8:15 PM 86.0 °F 85.4 °F 59.0 °F 40% 30.04 in 10.0 mi SSE 13.8 mph - N/A   Clear
8:35 PM 84.2 °F 83.8 °F 59.0 °F 42% 30.04 in 10.0 mi SSE 12.7 mph - N/A   Clear
8:55 PM 82.4 °F 82.9 °F 60.8 °F 48% 30.04 in 10.0 mi SSE 11.5 mph - N/A   Clear
9:15 PM 80.6 °F 81.5 °F 60.8 °F 51% 30.05 in 10.0 mi SSE 15.0 mph - N/A   Clear
9:35 PM 80.6 °F 81.5 °F 60.8 °F 51% 30.05 in 10.0 mi SSE 13.8 mph - N/A   Clear
9:55 PM 78.8 °F - 59.0 °F 51% 30.05 in 10.0 mi SSE 12.7 mph - N/A   Clear
10:15 PM 78.8 °F - 59.0 °F 51% 30.06 in 10.0 mi SSE 16.1 mph - N/A   Clear
10:35 PM 78.8 °F - 59.0 °F 51% 30.07 in 10.0 mi SSE 13.8 mph - N/A   Clear
10:55 PM 77.0 °F - 59.0 °F 54% 30.07 in 10.0 mi SSE 15.0 mph - N/A   Clear
11:15 PM 77.0 °F - 59.0 °F 54% 30.08 in 10.0 mi SSE 12.7 mph - N/A   Clear
11:35 PM 75.2 °F - 57.2 °F 53% 30.08 in 10.0 mi SSE 12.7 mph - N/A   Clear
11:55 PM 73.4 °F - 57.2 °F 57% 30.09 in 10.0 mi SSE 12.7 mph - N/A   Clear